Location: Warszawa
(52.2322°N, 21.0083°E)
Time: 02:39:06
(UTC+02:00)

ISS - Pass Details

Date: 23 March 2019
Orbit: 408 x 410 km, 51.6° (Epoch: 26 April)

Event Time Altitude Azimuth Distance (km) Brightness Sun altitude
Rises 18:42:08 0° 205° (SSW) 2,326 0.2 -8.2°
Reaches altitude 10° 18:44:44 10° 183° (S) 1,469 -1.1 -8.5°
Maximum altitude 18:46:52 16° 143° (SE) 1,153 -2.0 -8.9°
Enters shadow 18:48:19 13° 113° (ESE) 1,310 -1.9 -9.1°
